Retour au catalogue

STARLINK-36873

ActifCommunicationsVLEO
NORAD 67948·PAYLOAD·🇺🇸 United States

Lancé Feb 24, 2026 depuis Vandenberg Space Force Base

Loading…

Prochains Passages (prochaines 24 heures)

TLE

FraisSource: CelesTrak SupGP

Époque: Sep 14, 2026, 20:56 UTC

1 67948C 26037S   26257.87270833  .00019357  00000+0  70104-3 0  2578
2 67948  43.0029 201.9296 0001265 263.5973 263.7648 15.27571497    17

Suivez STARLINK-36873 en temps réel avec AllMySat

Download on the App Store